START_TIME,STEP,MOV.,M6,t_acc.,M7,t_acc.,M19,t_acc.,H36,t_acc.
1979-03-08 22:23:13.710 ,0,0,0.,12.0,0.,12.0,0.,12.0,0.,12.0
1979-03-08 22:23:25.710 ,0,0,0.,12.0,0.,12.0,0.,12.0,0.,12.0
1979-03-08 22:23:37.110 ,0,1,0.,12.0,0.,12.0,0.,12.0,0.,12.0
1979-03-08 22:23:49.110 ,0,1,0.,12.0,0.,12.0,0.,12.0,0.,12.0
1979-03-08 22:24:01.110 ,1,1,0.,12.0,0.,12.0,0.,12.0,0.,12.0
1979-03-08 22:24:13.110 ,1,1,0.,12.0,0.,12.0,0.,12.0,0.,12.0
1979-03-08 22:24:25.110 ,2,1,0.,12.0,0.,12.0,0.,12.0,0.,12.0
1979-03-08 22:24:37.110 ,2,1,0.,12.0,0.,12.0,0.,12.0,0.,12.0
1979-03-08 22:24:49.110 ,3,1,0.,12.0,0.,12.0,0.,12.0,0.,12.0
1979-03-08 22:25:01.110 ,3,1,0.,12.0,0.,12.0,0.,12.0,0.,12.0
1979-03-08 22:25:13.110 ,4,1,0.,12.0,0.,12.0,0.,12.0,0.,12.0
1979-03-08 22:25:25.110 ,4,1,0.,12.0,0.,12.0,0.,12.0,0.,12.0
1979-03-08 22:25:37.110 ,5,1,0.,12.0,0.,12.0,0.,12.0,0.,12.0
1979-03-08 22:25:49.110 ,5,1,0.,12.0,0.,12.0,0.,12.0,0.,12.0
1979-03-08 22:26:01.110 ,6,1,0.,12.0,0.,12.0,0.,12.0,0.,12.0
1979-03-08 22:26:13.110 ,6,1,0.,12.0,0.,12.0,0.,12.0,0.,12.0
1979-03-08 22:26:25.110 ,7,1,0.,12.0,0.,12.0,0.,12.0,0.,12.0
1979-03-08 22:26:37.110 ,7,1,0.,12.0,0.,12.0,0.,12.0,0.,12.0
1979-03-08 22:26:49.110 ,7,1,0.,12.0,0.,12.0,0.,12.0,0.,12.0
1979-03-08 22:27:01.110 ,7,1,0.,12.0,0.,12.0,0.,12.0,0.,12.0
1979-03-08 22:27:13.110 ,6,1,0.,12.0,0.,12.0,0.,12.0,0.,12.0
1979-03-08 22:27:25.110 ,6,1,0.,12.0,0.,12.0,0.,12.0,0.,12.0
1979-03-08 22:27:37.110 ,5,1,0.,12.0,0.,12.0,0.,12.0,0.,12.0
1979-03-08 22:27:49.110 ,5,1,0.,12.0,0.,12.0,0.,12.0,0.,12.0
1979-03-08 22:28:01.110 ,4,1,0.,12.0,0.,12.0,0.,12.0,0.,12.0
1979-03-08 22:28:13.110 ,4,1,1.,12.0,0.,12.0,0.,12.0,0.,12.0
1979-03-08 22:28:25.110 ,3,1,0.,12.0,0.,12.0,0.,12.0,0.,12.0
1979-03-08 22:28:37.110 ,3,1,0.,12.0,0.,12.0,0.,12.0,0.,12.0
1979-03-08 22:28:49.110 ,2,1,0.,12.0,0.,12.0,0.,12.0,0.,12.0
1979-03-08 22:29:01.110 ,2,1,0.,12.0,0.,12.0,0.,12.0,0.,12.0
1979-03-08 22:29:13.110 ,1,1,0.,12.0,0.,12.0,0.,12.0,0.,12.0
1979-03-08 22:29:25.110 ,1,1,0.,12.0,0.,12.0,0.,12.0,0.,12.0
1979-03-08 22:29:37.110 ,0,1,0.,12.0,0.,12.0,0.,12.0,0.,12.0
1979-03-08 22:29:49.110 ,0,1,0.,12.0,0.,12.0,0.,12.0,0.,12.0
1979-03-08 22:30:01.110 ,0,1,0.,12.0,0.,12.0,0.,12.0,0.,12.0
1979-03-08 22:30:13.110 ,0,1,0.,12.0,0.,12.0,0.,12.0,0.,12.0
1979-03-08 22:30:25.110 ,1,1,0.,12.0,0.,12.0,0.,12.0,0.,12.0
1979-03-08 22:30:37.110 ,1,1,0.,12.0,0.,12.0,0.,12.0,0.,12.0
1979-03-08 22:30:49.110 ,2,1,0.,12.0,0.,12.0,0.,12.0,0.,12.0
1979-03-08 22:31:01.110 ,2,1,0.,12.0,0.,12.0,0.,12.0,0.,12.0
1979-03-08 22:31:13.110 ,3,1,0.,12.0,0.,12.0,0.,12.0,0.,12.0
1979-03-08 22:31:25.110 ,3,1,0.,12.0,0.,12.0,0.,12.0,0.,12.0
1979-03-08 22:31:37.110 ,4,1,0.,12.0,0.,12.0,0.,12.0,0.,12.0
1979-03-08 22:31:49.110 ,4,1,0.,12.0,0.,12.0,0.,12.0,0.,12.0
1979-03-08 22:32:01.110 ,5,1,0.,12.0,0.,12.0,0.,12.0,0.,12.0
1979-03-08 22:32:13.110 ,5,1,0.,12.0,0.,12.0,0.,12.0,0.,12.0
1979-03-08 22:32:25.110 ,6,1,0.,12.0,0.,12.0,0.,12.0,0.,12.0
1979-03-08 22:32:37.110 ,6,1,0.,12.0,0.,12.0,0.,12.0,0.,12.0
1979-03-08 22:32:49.110 ,7,1,1.,12.0,0.,12.0,0.,12.0,0.,12.0
1979-03-08 22:33:01.110 ,7,1,0.,12.0,0.,12.0,0.,12.0,0.,12.0
1979-03-08 22:33:13.110 ,7,1,0.,12.0,0.,12.0,0.,12.0,0.,12.0
1979-03-08 22:33:25.110 ,7,1,0.,12.0,0.,12.0,0.,12.0,0.,12.0
1979-03-08 22:33:37.110 ,6,1,0.,12.0,0.,12.0,0.,12.0,0.,12.0
1979-03-08 22:33:49.110 ,6,1,0.,12.0,0.,12.0,0.,12.0,0.,12.0
1979-03-08 22:34:01.110 ,5,1,0.,12.0,0.,12.0,0.,12.0,0.,12.0
1979-03-08 22:34:13.110 ,5,1,0.,12.0,0.,12.0,0.,12.0,0.,12.0
1979-03-08 22:34:25.110 ,4,1,0.,12.0,0.,12.0,0.,12.0,0.,12.0
1979-03-08 22:34:37.110 ,4,1,0.,12.0,0.,12.0,0.,12.0,0.,12.0
1979-03-08 22:34:49.110 ,3,1,0.,12.0,0.,12.0,0.,12.0,0.,12.0
1979-03-08 22:35:01.110 ,3,1,0.,12.0,0.,12.0,0.,12.0,0.,12.0
1979-03-08 22:35:13.110 ,2,1,0.,12.0,0.,12.0,0.,12.0,0.,12.0
1979-03-08 22:35:25.110 ,2,1,0.,12.0,0.,12.0,0.,12.0,0.,12.0
1979-03-08 22:35:37.110 ,1,1,0.,12.0,0.,12.0,0.,12.0,0.,12.0
1979-03-08 22:35:49.110 ,1,1,0.,12.0,0.,12.0,0.,12.0,0.,12.0
1979-03-08 22:36:01.110 ,0,1,0.,12.0,0.,12.0,0.,12.0,0.,12.0
1979-03-08 22:36:13.110 ,0,1,0.,12.0,0.,12.0,0.,12.0,0.,12.0
1979-03-08 22:36:25.110 ,0,1,0.,12.0,0.,12.0,0.,12.0,0.,12.0
1979-03-08 22:36:37.110 ,0,1,0.,12.0,0.,12.0,0.,12.0,0.,12.0
1979-03-08 22:36:49.110 ,1,1,0.,12.0,0.,12.0,0.,12.0,0.,12.0
1979-03-08 22:37:01.110 ,1,1,0.,12.0,0.,12.0,0.,12.0,0.,12.0
1979-03-08 22:37:13.110 ,2,1,0.,12.0,0.,12.0,0.,12.0,0.,12.0
1979-03-08 22:37:25.110 ,2,1,0.,12.0,0.,12.0,0.,12.0,0.,12.0
1979-03-08 22:37:37.110 ,3,1,0.,12.0,0.,12.0,0.,12.0,0.,12.0
1979-03-08 22:37:49.110 ,3,1,0.,12.0,0.,12.0,0.,12.0,0.,12.0
1979-03-08 22:38:01.110 ,4,1,0.,12.0,1.,12.0,0.,12.0,0.,12.0
1979-03-08 22:38:13.110 ,4,1,0.,12.0,0.,12.0,0.,12.0,0.,12.0
1979-03-08 22:38:25.110 ,5,1,0.,12.0,0.,12.0,0.,12.0,0.,12.0
1979-03-08 22:38:37.110 ,5,1,0.,12.0,0.,12.0,0.,12.0,0.,12.0
1979-03-08 22:38:49.110 ,6,1,0.,12.0,0.,12.0,0.,12.0,0.,12.0
1979-03-08 22:39:01.110 ,6,1,0.,12.0,0.,12.0,0.,12.0,0.,12.0
1979-03-08 22:39:13.110 ,7,1,0.,12.0,0.,12.0,0.,12.0,0.,12.0
1979-03-08 22:39:25.110 ,7,1,0.,12.0,0.,12.0,0.,12.0,0.,12.0
1979-03-08 22:42:25.110 ,0,1,0.,12.0,0.,12.0,0.,12.0,0.,12.0
1979-03-08 22:42:37.110 ,0,1,0.,12.0,0.,12.0,0.,12.0,0.,12.0
1979-03-08 22:42:49.110 ,0,1,0.,12.0,0.,12.0,0.,12.0,0.,12.0
1979-03-08 22:43:01.110 ,0,1,0.,12.0,0.,12.0,0.,12.0,0.,12.0
1979-03-08 22:43:13.110 ,1,1,0.,12.0,0.,12.0,0.,12.0,0.,12.0
1979-03-08 22:43:25.110 ,1,1,0.,12.0,0.,12.0,0.,12.0,0.,12.0
1979-03-08 22:43:37.110 ,2,1,0.,12.0,0.,12.0,0.,12.0,0.,12.0
1979-03-08 22:43:49.110 ,2,1,0.,12.0,0.,12.0,0.,12.0,0.,12.0
1979-03-08 22:44:01.110 ,3,1,0.,12.0,0.,12.0,0.,12.0,0.,12.0
1979-03-08 22:44:13.110 ,3,1,0.,12.0,0.,12.0,0.,12.0,0.,12.0
1979-03-08 22:44:25.110 ,4,1,0.,12.0,0.,12.0,0.,12.0,0.,12.0
1979-03-08 22:44:37.110 ,4,1,0.,12.0,0.,12.0,0.,12.0,0.,12.0
1979-03-08 22:44:49.110 ,5,1,0.,12.0,0.,12.0,0.,12.0,0.,12.0
1979-03-08 22:45:01.110 ,5,1,0.,12.0,0.,12.0,0.,12.0,0.,12.0
1979-03-08 22:55:13.110 ,0,1,0.,12.0,0.,12.0,0.,12.0,0.,12.0
1979-03-08 22:55:25.110 ,0,1,0.,12.0,0.,12.0,0.,12.0,0.,12.0
1979-03-08 22:55:37.110 ,0,1,0.,12.0,0.,12.0,0.,12.0,0.,12.0
1979-03-08 22:55:49.110 ,0,1,0.,12.0,0.,12.0,0.,12.0,0.,12.0
1979-03-08 22:56:01.110 ,1,1,0.,12.0,0.,12.0,0.,12.0,0.,12.0
1979-03-08 22:56:13.110 ,1,1,0.,12.0,0.,12.0,0.,12.0,0.,12.0
1979-03-08 22:56:25.110 ,2,1,0.,12.0,0.,12.0,0.,12.0,0.,12.0
1979-03-08 22:56:37.110 ,2,1,0.,12.0,0.,12.0,0.,12.0,0.,12.0
1979-03-08 22:56:49.110 ,3,1,0.,12.0,0.,12.0,0.,12.0,0.,12.0
1979-03-08 22:57:01.110 ,3,1,0.,12.0,0.,12.0,0.,12.0,0.,12.0
1979-03-08 22:57:13.110 ,4,1,0.,12.0,0.,12.0,0.,12.0,0.,12.0
1979-03-08 22:57:25.110 ,4,1,0.,12.0,0.,12.0,0.,12.0,0.,12.0
1979-03-08 22:57:37.110 ,5,1,0.,12.0,0.,12.0,0.,12.0,0.,12.0
1979-03-08 22:57:49.110 ,5,1,0.,12.0,0.,12.0,0.,12.0,0.,12.0
1979-03-08 22:58:01.110 ,6,1,0.,12.0,0.,12.0,0.,12.0,0.,12.0
1979-03-08 22:58:13.110 ,6,1,0.,12.0,0.,12.0,0.,12.0,0.,12.0
1979-03-08 22:58:25.110 ,7,1,0.,12.0,0.,12.0,0.,12.0,0.,12.0
1979-03-08 22:58:37.110 ,7,1,0.,12.0,0.,12.0,0.,12.0,0.,12.0
1979-03-08 22:58:49.110 ,7,1,0.,12.0,0.,12.0,0.,12.0,0.,12.0
1979-03-08 22:59:01.110 ,7,1,0.,12.0,0.,12.0,0.,12.0,0.,12.0
1979-03-08 22:59:13.110 ,6,1,0.,12.0,0.,12.0,0.,12.0,0.,12.0
1979-03-08 22:59:25.110 ,6,1,0.,12.0,0.,12.0,0.,12.0,0.,12.0
1979-03-08 22:59:37.110 ,5,1,0.,12.0,0.,12.0,0.,12.0,0.,12.0
1979-03-08 22:59:49.110 ,5,1,0.,12.0,0.,12.0,0.,12.0,0.,12.0
1979-03-08 23:00:01.110 ,4,1,0.,12.0,0.,12.0,0.,12.0,0.,12.0
1979-03-08 23:00:13.110 ,4,1,0.,12.0,0.,12.0,0.,12.0,0.,12.0
1979-03-08 23:00:25.110 ,3,1,0.,12.0,0.,12.0,0.,12.0,0.,12.0
1979-03-08 23:00:37.110 ,3,1,0.,12.0,0.,12.0,0.,12.0,0.,12.0
1979-03-08 23:00:49.110 ,2,1,0.,12.0,0.,12.0,0.,12.0,0.,12.0
1979-03-08 23:01:01.110 ,2,1,0.,12.0,0.,12.0,0.,12.0,0.,12.0
1979-03-08 23:01:13.110 ,1,1,0.,12.0,0.,12.0,0.,12.0,0.,12.0
1979-03-08 23:01:25.110 ,1,1,0.,12.0,0.,12.0,0.,12.0,0.,12.0
1979-03-08 23:01:37.110 ,0,1,0.,12.0,0.,12.0,0.,12.0,0.,12.0
1979-03-08 23:01:49.110 ,0,1,0.,12.0,0.,12.0,0.,12.0,0.,12.0
1979-03-08 23:02:01.110 ,0,1,0.,12.0,0.,12.0,0.,12.0,0.,12.0
1979-03-08 23:02:13.110 ,0,1,0.,12.0,0.,12.0,0.,12.0,0.,12.0
1979-03-08 23:02:25.110 ,1,1,1.,12.0,0.,12.0,0.,12.0,0.,12.0
1979-03-08 23:02:37.110 ,1,1,0.,12.0,0.,12.0,0.,12.0,0.,12.0
1979-03-08 23:02:49.110 ,2,1,0.,12.0,0.,12.0,0.,12.0,0.,12.0
1979-03-08 23:03:01.110 ,2,1,0.,12.0,0.,12.0,0.,12.0,0.,12.0
1979-03-08 23:03:13.110 ,3,1,0.,12.0,0.,12.0,0.,12.0,0.,12.0
1979-03-08 23:03:25.110 ,3,1,0.,12.0,0.,12.0,0.,12.0,0.,12.0
1979-03-08 23:03:37.110 ,4,1,0.,12.0,0.,12.0,0.,12.0,0.,12.0
1979-03-08 23:03:49.110 ,4,1,1.,12.0,0.,12.0,0.,12.0,0.,12.0
1979-03-08 23:04:01.110 ,5,1,0.,12.0,0.,12.0,0.,12.0,0.,12.0
1979-03-08 23:04:13.110 ,5,1,0.,12.0,0.,12.0,0.,12.0,0.,12.0
1979-03-08 23:04:25.110 ,6,1,0.,12.0,0.,12.0,0.,12.0,0.,12.0
1979-03-08 23:04:37.110 ,6,1,0.,12.0,0.,12.0,0.,12.0,0.,12.0
1979-03-08 23:04:49.110 ,7,1,0.,12.0,0.,12.0,0.,12.0,0.,12.0
1979-03-08 23:05:01.110 ,7,1,0.,12.0,0.,12.0,0.,12.0,0.,12.0
1979-03-08 23:05:13.110 ,7,1,0.,12.0,0.,12.0,0.,12.0,0.,12.0
1979-03-08 23:05:25.110 ,7,1,0.,12.0,0.,12.0,0.,12.0,0.,12.0
1979-03-08 23:05:37.110 ,6,1,0.,12.0,0.,12.0,0.,12.0,0.,12.0
1979-03-08 23:05:49.110 ,6,1,0.,12.0,0.,12.0,0.,12.0,0.,12.0
1979-03-08 23:06:01.110 ,5,1,0.,12.0,0.,12.0,0.,12.0,0.,12.0
1979-03-08 23:06:13.110 ,5,1,0.,12.0,0.,12.0,0.,12.0,0.,12.0
1979-03-08 23:06:25.110 ,4,1,0.,12.0,0.,12.0,0.,12.0,0.,12.0
1979-03-08 23:06:37.110 ,4,1,0.,12.0,0.,12.0,0.,12.0,0.,12.0
1979-03-08 23:06:49.110 ,3,1,0.,12.0,0.,12.0,0.,12.0,0.,12.0
1979-03-08 23:07:01.110 ,3,1,0.,12.0,0.,12.0,0.,12.0,0.,12.0
1979-03-08 23:07:13.110 ,2,1,0.,12.0,0.,12.0,0.,12.0,0.,12.0
1979-03-08 23:07:25.110 ,2,1,0.,12.0,0.,12.0,0.,12.0,0.,12.0
1979-03-08 23:07:37.110 ,1,1,0.,12.0,0.,12.0,0.,12.0,0.,12.0
1979-03-08 23:07:49.110 ,1,1,0.,12.0,0.,12.0,0.,12.0,0.,12.0
1979-03-08 23:08:01.110 ,0,1,0.,12.0,0.,12.0,0.,12.0,0.,12.0
1979-03-08 23:08:13.110 ,0,1,0.,12.0,0.,12.0,0.,12.0,0.,12.0
1979-03-08 23:08:25.110 ,0,1,0.,12.0,0.,12.0,0.,12.0,0.,12.0
1979-03-08 23:08:37.110 ,0,1,0.,12.0,0.,12.0,0.,12.0,0.,12.0
1979-03-08 23:08:49.110 ,1,1,0.,12.0,0.,12.0,0.,12.0,0.,12.0
1979-03-08 23:09:01.110 ,1,1,0.,12.0,0.,12.0,0.,12.0,0.,12.0
1979-03-08 23:09:13.110 ,2,1,0.,12.0,0.,12.0,0.,12.0,0.,12.0
1979-03-08 23:09:25.110 ,2,1,0.,12.0,0.,12.0,0.,12.0,0.,12.0
1979-03-08 23:09:37.110 ,0,0,,0,,0,,0,,0
1979-03-08 23:09:49.110 ,0,0,,0,,0,,0,,0
1979-03-08 23:10:01.110 ,0,0,,0,,0,,0,,0
1979-03-08 23:10:13.110 ,0,0,,0,,0,,0,,0
1979-03-08 23:10:01.110 ,4,1,0.,12.0,0.,12.0,0.,12.0,0.,12.0
1979-03-08 23:10:13.110 ,4,1,0.,12.0,0.,12.0,0.,12.0,0.,12.0
1979-03-08 23:10:25.110 ,5,1,0.,12.0,0.,12.0,0.,12.0,0.,12.0
1979-03-08 23:10:37.110 ,5,1,0.,12.0,0.,12.0,0.,12.0,0.,12.0
1979-03-08 23:10:49.110 ,6,1,0.,12.0,0.,12.0,0.,12.0,0.,12.0
1979-03-08 23:11:01.110 ,6,1,0.,12.0,0.,12.0,0.,12.0,0.,12.0
1979-03-08 23:11:13.110 ,7,1,0.,12.0,0.,12.0,0.,12.0,0.,12.0
1979-03-08 23:11:25.110 ,7,1,0.,12.0,0.,12.0,0.,12.0,0.,12.0
1979-03-08 23:11:37.110 ,7,1,0.,12.0,0.,12.0,0.,12.0,0.,12.0
1979-03-08 23:11:49.110 ,7,1,0.,12.0,0.,12.0,0.,12.0,0.,12.0
1979-03-08 23:12:01.110 ,6,1,0.,12.0,0.,12.0,0.,12.0,0.,12.0
1979-03-08 23:12:13.110 ,6,1,0.,12.0,0.,12.0,0.,12.0,0.,12.0
1979-03-08 23:12:25.110 ,5,1,0.,12.0,0.,12.0,0.,12.0,0.,12.0
1979-03-08 23:12:37.110 ,5,1,0.,12.0,0.,12.0,0.,12.0,0.,12.0
1979-03-08 23:12:49.110 ,4,1,0.,12.0,0.,12.0,0.,12.0,0.,12.0
1979-03-08 23:13:01.110 ,4,1,0.,12.0,0.,12.0,0.,12.0,0.,12.0
1979-03-08 23:13:13.110 ,3,1,0.,12.0,0.,12.0,0.,12.0,0.,12.0
1979-03-08 23:13:25.110 ,3,1,0.,12.0,0.,12.0,0.,12.0,0.,12.0
1979-03-08 23:13:37.110 ,2,1,0.,12.0,0.,12.0,0.,12.0,0.,12.0
1979-03-08 23:13:49.110 ,2,1,0.,12.0,0.,12.0,0.,12.0,0.,12.0
1979-03-08 23:14:01.110 ,1,1,0.,12.0,0.,12.0,0.,12.0,0.,12.0
1979-03-08 23:14:13.110 ,1,1,0.,12.0,0.,12.0,0.,12.0,0.,12.0
1979-03-08 23:14:25.110 ,0,1,0.,12.0,0.,12.0,0.,12.0,0.,12.0
1979-03-08 23:14:37.110 ,0,1,0.,12.0,0.,12.0,0.,12.0,0.,12.0
1979-03-08 23:14:49.110 ,0,1,0.,12.0,0.,12.0,0.,12.0,0.,12.0
1979-03-08 23:15:01.110 ,0,1,0.,12.0,0.,12.0,0.,12.0,0.,12.0
1979-03-08 23:15:13.110 ,1,1,0.,12.0,0.,12.0,0.,12.0,0.,12.0
1979-03-08 23:15:25.110 ,1,1,0.,12.0,0.,12.0,0.,12.0,0.,12.0
1979-03-08 23:15:37.110 ,2,1,0.,12.0,0.,12.0,0.,12.0,0.,12.0
1979-03-08 23:15:49.110 ,2,1,0.,12.0,0.,12.0,0.,12.0,0.,12.0
1979-03-08 23:16:01.110 ,3,1,0.,12.0,0.,12.0,0.,12.0,0.,12.0
1979-03-08 23:16:13.110 ,3,1,0.,12.0,0.,12.0,0.,12.0,0.,12.0
1979-03-08 23:16:25.110 ,4,1,0.,12.0,0.,12.0,0.,12.0,0.,12.0
1979-03-08 23:16:37.110 ,4,1,0.,12.0,0.,12.0,0.,12.0,0.,12.0
1979-03-08 23:16:49.110 ,5,1,0.,12.0,0.,12.0,0.,12.0,0.,12.0
1979-03-08 23:17:01.110 ,5,1,0.,12.0,0.,12.0,0.,12.0,0.,12.0
1979-03-08 23:17:13.110 ,6,1,0.,12.0,0.,12.0,0.,12.0,0.,12.0
1979-03-08 23:17:25.110 ,6,1,0.,12.0,0.,12.0,0.,12.0,0.,12.0
1979-03-08 23:17:37.110 ,7,1,0.,12.0,0.,12.0,0.,12.0,0.,12.0
1979-03-08 23:17:49.110 ,7,1,0.,12.0,0.,12.0,0.,12.0,0.,12.0
1979-03-08 23:18:01.110 ,7,1,0.,12.0,0.,12.0,0.,12.0,0.,12.0
1979-03-08 23:18:13.110 ,7,1,0.,12.0,0.,12.0,0.,12.0,0.,12.0
1979-03-08 23:18:25.110 ,6,1,0.,12.0,0.,12.0,0.,12.0,0.,12.0
1979-03-08 23:18:37.110 ,6,1,0.,12.0,0.,12.0,0.,12.0,0.,12.0
1979-03-08 23:18:49.110 ,5,1,0.,12.0,0.,12.0,0.,12.0,0.,12.0
1979-03-08 23:19:01.110 ,5,1,0.,12.0,0.,12.0,0.,12.0,0.,12.0
1979-03-08 23:19:13.110 ,4,1,0.,12.0,0.,12.0,0.,12.0,0.,12.0
1979-03-08 23:19:25.110 ,4,1,0.,12.0,0.,12.0,0.,12.0,0.,12.0
1979-03-08 23:19:37.110 ,3,1,0.,12.0,0.,12.0,0.,12.0,0.,12.0
1979-03-08 23:19:49.110 ,3,1,0.,12.0,0.,12.0,0.,12.0,0.,12.0
1979-03-08 23:20:01.110 ,2,1,0.,12.0,0.,12.0,0.,12.0,0.,12.0
1979-03-08 23:20:13.110 ,2,1,0.,12.0,0.,12.0,0.,12.0,0.,12.0
1979-03-08 23:20:25.110 ,1,1,0.,12.0,0.,12.0,0.,12.0,0.,12.0
1979-03-08 23:20:37.110 ,1,1,0.,12.0,0.,12.0,0.,12.0,0.,12.0
1979-03-08 23:20:49.110 ,0,1,0.,12.0,0.,12.0,0.,12.0,0.,12.0
1979-03-08 23:21:01.110 ,0,1,0.,12.0,0.,12.0,0.,12.0,0.,12.0
1979-03-08 23:21:13.110 ,0,1,0.,12.0,0.,12.0,0.,12.0,0.,12.0
1979-03-08 23:21:25.110 ,0,1,0.,12.0,0.,12.0,0.,12.0,0.,12.0
1979-03-08 23:21:46.110 ,1,1,,0,,0,,0,,0
1979-03-08 23:21:58.110 ,1,1,0.,12.0,0.,12.0,0.,12.0,0.,12.0
1979-03-08 23:22:01.110 ,2,1,0.,12.0,0.,12.0,0.,12.0,0.,12.0
1979-03-08 23:22:13.110 ,2,1,0.,12.0,0.,12.0,0.,12.0,0.,12.0
1979-03-08 23:22:25.110 ,3,1,0.,12.0,0.,12.0,0.,12.0,0.,12.0
1979-03-08 23:22:37.110 ,3,1,0.,12.0,0.,12.0,0.,12.0,0.,12.0
1979-03-08 23:22:49.110 ,4,1,0.,12.0,0.,12.0,0.,12.0,0.,12.0
1979-03-08 23:23:01.110 ,4,1,0.,12.0,0.,12.0,0.,12.0,0.,12.0
1979-03-08 23:23:13.110 ,5,1,0.,12.0,0.,12.0,0.,12.0,0.,12.0
1979-03-08 23:23:25.110 ,5,1,0.,12.0,0.,12.0,0.,12.0,0.,12.0
1979-03-08 23:23:37.110 ,6,1,0.,12.0,0.,12.0,0.,12.0,0.,12.0
1979-03-08 23:23:49.110 ,6,1,0.,12.0,0.,12.0,0.,12.0,0.,12.0
1979-03-08 23:24:01.110 ,6,0,0.,12.0,0.,12.0,0.,12.0,0.,12.0
1979-03-08 23:24:13.110 ,6,0,,0,,0,,0,,0
1979-03-08 23:24:25.110 ,7,1,0.,12.0,0.,12.0,0.,12.0,0.,12.0
1979-03-08 23:24:37.110 ,7,1,0.,12.0,0.,12.0,0.,12.0,0.,12.0
1979-03-08 23:24:49.110 ,6,1,0.,12.0,0.,12.0,0.,12.0,0.,12.0
1979-03-08 23:25:01.110 ,6,1,0.,12.0,0.,12.0,0.,12.0,0.,12.0
1979-03-08 23:25:13.110 ,5,1,0.,12.0,0.,12.0,0.,12.0,0.,12.0
1979-03-08 23:25:25.110 ,5,1,0.,12.0,0.,12.0,0.,12.0,0.,12.0
1979-03-08 23:25:37.110 ,4,1,0.,12.0,0.,12.0,0.,12.0,0.,12.0
1979-03-08 23:25:49.110 ,4,1,0.,12.0,0.,12.0,0.,12.0,0.,12.0
1979-03-08 23:26:01.110 ,3,1,0.,12.0,0.,12.0,0.,12.0,0.,12.0
1979-03-08 23:26:13.110 ,3,1,0.,12.0,0.,12.0,0.,12.0,0.,12.0
1979-03-08 23:26:25.110 ,2,1,0.,12.0,0.,12.0,0.,12.0,0.,12.0
1979-03-08 23:26:37.110 ,2,1,0.,12.0,0.,12.0,0.,12.0,0.,12.0
1979-03-08 23:26:49.110 ,1,1,0.,12.0,0.,12.0,0.,12.0,0.,12.0
1979-03-08 23:27:01.110 ,1,1,0.,12.0,0.,12.0,0.,12.0,0.,12.0
1979-03-08 23:27:13.110 ,0,1,0.,12.0,0.,12.0,0.,12.0,0.,12.0
1979-03-08 23:27:25.110 ,0,1,0.,12.0,0.,12.0,0.,12.0,0.,12.0
1979-03-08 23:27:37.110 ,0,1,0.,12.0,0.,12.0,0.,12.0,0.,12.0
1979-03-08 23:27:49.110 ,0,1,0.,12.0,0.,12.0,0.,12.0,0.,12.0
1979-03-08 23:28:01.110 ,1,1,0.,12.0,0.,12.0,0.,12.0,0.,12.0
1979-03-08 23:28:13.110 ,1,1,0.,12.0,0.,12.0,0.,12.0,0.,12.0
1979-03-08 23:28:25.110 ,2,1,0.,12.0,0.,12.0,0.,12.0,0.,12.0
1979-03-08 23:28:37.110 ,2,1,0.,12.0,0.,12.0,0.,12.0,0.,12.0
1979-03-08 23:28:49.110 ,3,1,0.,12.0,0.,12.0,0.,12.0,0.,12.0
1979-03-08 23:29:01.110 ,3,1,0.,12.0,0.,12.0,0.,12.0,0.,12.0
1979-03-08 23:29:13.110 ,4,1,0.,12.0,0.,12.0,0.,12.0,0.,12.0
1979-03-08 23:29:25.110 ,4,1,0.,12.0,0.,12.0,0.,12.0,0.,12.0
1979-03-08 23:29:37.110 ,5,1,0.,12.0,0.,12.0,0.,12.0,0.,12.0
1979-03-08 23:29:49.110 ,5,1,0.,12.0,0.,12.0,0.,12.0,0.,12.0
1979-03-08 23:30:01.110 ,6,1,,0,,0,,0,,0
1979-03-08 23:30:13.110 ,6,1,0.,12.0,0.,12.0,0.,12.0,0.,12.0
1979-03-08 23:30:25.110 ,7,1,0.,12.0,0.,12.0,0.,12.0,0.,12.0
1979-03-08 23:30:37.110 ,7,1,0.,12.0,0.,12.0,0.,12.0,0.,12.0
1979-03-08 23:30:49.110 ,7,1,0.,12.0,0.,12.0,0.,12.0,0.,12.0
1979-03-08 23:31:01.110 ,7,1,0.,12.0,0.,12.0,0.,12.0,0.,12.0
1979-03-08 23:31:13.110 ,6,1,0.,12.0,0.,12.0,0.,12.0,0.,12.0
1979-03-08 23:31:25.110 ,6,1,0.,12.0,0.,12.0,0.,12.0,0.,12.0
1979-03-08 23:31:37.110 ,5,1,0.,12.0,0.,12.0,0.,12.0,0.,12.0
1979-03-08 23:31:49.110 ,5,1,0.,12.0,0.,12.0,0.,12.0,0.,12.0
1979-03-08 23:32:01.110 ,4,1,1.,12.0,0.,12.0,0.,12.0,0.,12.0
1979-03-08 23:32:13.110 ,4,1,0.,12.0,0.,12.0,0.,12.0,0.,12.0
1979-03-08 23:32:25.110 ,3,1,0.,12.0,0.,12.0,0.,12.0,0.,12.0
1979-03-08 23:32:37.110 ,3,1,0.,12.0,0.,12.0,0.,12.0,0.,12.0
1979-03-08 23:32:49.110 ,2,1,0.,12.0,0.,12.0,0.,12.0,0.,12.0
1979-03-08 23:33:01.110 ,2,1,0.,12.0,0.,12.0,0.,12.0,0.,12.0
1979-03-08 23:33:13.110 ,1,1,0.,12.0,0.,12.0,0.,12.0,0.,12.0
1979-03-08 23:33:25.110 ,1,1,0.,12.0,0.,12.0,0.,12.0,0.,12.0
1979-03-08 23:33:37.110 ,0,1,0.,12.0,0.,12.0,0.,12.0,0.,12.0
1979-03-08 23:33:49.110 ,0,1,0.,12.0,0.,12.0,0.,12.0,0.,12.0
1979-03-08 23:34:01.110 ,0,1,0.,12.0,0.,12.0,0.,12.0,0.,12.0
1979-03-08 23:34:13.110 ,0,1,0.,12.0,0.,12.0,0.,12.0,0.,12.0
1979-03-08 23:34:25.110 ,1,1,0.,12.0,0.,12.0,0.,12.0,0.,12.0
1979-03-08 23:34:37.110 ,1,1,0.,12.0,0.,12.0,0.,12.0,0.,12.0
1979-03-08 23:34:49.110 ,2,1,0.,12.0,0.,12.0,0.,12.0,0.,12.0
1979-03-08 23:35:01.110 ,2,1,0.,12.0,0.,12.0,0.,12.0,0.,12.0
1979-03-08 23:35:13.110 ,3,1,0.,12.0,0.,12.0,0.,12.0,0.,12.0
1979-03-08 23:35:25.110 ,3,1,0.,12.0,0.,12.0,0.,12.0,0.,12.0
1979-03-08 23:35:37.110 ,4,1,0.,12.0,0.,12.0,0.,12.0,0.,12.0
1979-03-08 23:35:49.110 ,4,1,0.,12.0,0.,12.0,0.,12.0,0.,12.0
1979-03-08 23:36:01.110 ,5,1,0.,12.0,0.,12.0,0.,12.0,0.,12.0
1979-03-08 23:36:13.110 ,5,1,0.,12.0,0.,12.0,0.,12.0,0.,12.0
1979-03-08 23:36:25.110 ,6,1,0.,12.0,0.,12.0,0.,12.0,0.,12.0
1979-03-08 23:36:37.110 ,6,1,0.,12.0,0.,12.0,0.,12.0,0.,12.0
1979-03-08 23:36:49.110 ,7,1,0.,12.0,0.,12.0,0.,12.0,0.,12.0
1979-03-08 23:37:01.110 ,7,1,0.,12.0,0.,12.0,0.,12.0,0.,12.0
1979-03-08 23:37:13.110 ,7,1,0.,12.0,0.,12.0,0.,12.0,0.,12.0
1979-03-08 23:37:25.110 ,7,1,0.,12.0,0.,12.0,0.,12.0,0.,12.0
1979-03-08 23:37:37.110 ,6,1,0.,12.0,0.,12.0,0.,12.0,0.,12.0
1979-03-08 23:37:49.110 ,6,1,0.,12.0,0.,12.0,0.,12.0,0.,12.0
1979-03-08 23:38:01.110 ,5,1,0.,12.0,0.,12.0,0.,12.0,0.,12.0
1979-03-08 23:38:13.110 ,5,1,0.,12.0,0.,12.0,0.,12.0,0.,12.0
1979-03-08 23:38:25.110 ,4,1,0.,12.0,0.,12.0,0.,12.0,0.,12.0
1979-03-08 23:38:37.110 ,4,1,0.,12.0,0.,12.0,0.,12.0,0.,12.0
1979-03-08 23:38:49.110 ,3,1,0.,12.0,0.,12.0,0.,12.0,0.,12.0
1979-03-08 23:39:01.110 ,3,1,0.,12.0,0.,12.0,0.,12.0,0.,12.0
1979-03-08 23:39:13.110 ,2,1,0.,12.0,0.,12.0,0.,12.0,0.,12.0
1979-03-08 23:39:25.110 ,2,1,0.,12.0,0.,12.0,0.,12.0,0.,12.0
1979-03-08 23:39:37.110 ,1,1,0.,12.0,0.,12.0,0.,12.0,0.,12.0
1979-03-08 23:39:49.110 ,1,1,0.,12.0,0.,12.0,0.,12.0,0.,12.0
1979-03-08 23:40:01.110 ,0,1,0.,12.0,0.,12.0,0.,12.0,0.,12.0
1979-03-08 23:40:13.110 ,0,1,0.,12.0,0.,12.0,0.,12.0,0.,12.0
1979-03-08 23:40:25.110 ,0,1,0.,12.0,0.,12.0,0.,12.0,0.,12.0
1979-03-08 23:40:37.110 ,0,1,0.,12.0,0.,12.0,0.,12.0,0.,12.0
1979-03-08 23:40:49.110 ,1,1,0.,12.0,0.,12.0,0.,12.0,0.,12.0
1979-03-08 23:41:01.110 ,1,1,0.,12.0,0.,12.0,0.,12.0,0.,12.0
1979-03-08 23:41:13.110 ,2,1,0.,12.0,0.,12.0,0.,12.0,0.,12.0
1979-03-08 23:41:25.110 ,2,1,0.,12.0,0.,12.0,0.,12.0,0.,12.0
1979-03-08 23:41:37.110 ,3,1,0.,12.0,0.,12.0,0.,12.0,0.,12.0
1979-03-08 23:41:49.110 ,3,1,0.,12.0,0.,12.0,0.,12.0,0.,12.0
1979-03-08 23:42:01.110 ,4,1,0.,12.0,0.,12.0,0.,12.0,0.,12.0
1979-03-08 23:42:13.110 ,4,1,0.,12.0,0.,12.0,0.,12.0,0.,12.0
1979-03-08 23:42:25.110 ,5,1,0.,12.0,0.,12.0,0.,12.0,0.,12.0
1979-03-08 23:42:37.110 ,5,1,0.,12.0,0.,12.0,0.,12.0,0.,12.0
1979-03-08 23:42:49.110 ,6,1,0.,12.0,0.,12.0,0.,12.0,0.,12.0
1979-03-08 23:43:01.110 ,6,1,0.,12.0,0.,12.0,0.,12.0,0.,12.0
1979-03-08 23:43:13.110 ,7,1,1.,12.0,0.,12.0,0.,12.0,0.,12.0
1979-03-08 23:43:25.110 ,7,1,0.,12.0,0.,12.0,0.,12.0,0.,12.0
1979-03-08 23:43:37.110 ,7,1,0.,12.0,0.,12.0,0.,12.0,0.,12.0
1979-03-08 23:43:49.110 ,7,1,0.,12.0,0.,12.0,0.,12.0,0.,12.0
1979-03-08 23:44:01.120 ,6,1,0.,12.0,0.,12.0,0.,12.0,0.,12.0
1979-03-08 23:44:13.120 ,6,1,0.,12.0,0.,12.0,0.,12.0,0.,12.0
1979-03-08 23:44:25.120 ,5,1,0.,12.0,0.,12.0,0.,12.0,0.,12.0
1979-03-08 23:44:37.120 ,5,1,0.,12.0,0.,12.0,0.,12.0,0.,12.0
1979-03-08 23:44:49.120 ,4,1,0.,12.0,0.,12.0,0.,12.0,0.,12.0
1979-03-08 23:45:01.120 ,4,1,0.,12.0,0.,12.0,0.,12.0,0.,12.0
1979-03-08 23:45:13.120 ,3,1,0.,12.0,0.,12.0,0.,12.0,0.,12.0
1979-03-08 23:45:25.120 ,3,1,0.,12.0,0.,12.0,0.,12.0,0.,12.0
1979-03-08 23:45:37.120 ,2,1,0.,12.0,0.,12.0,0.,12.0,0.,12.0
1979-03-08 23:45:49.120 ,2,1,0.,12.0,0.,12.0,0.,12.0,0.,12.0
1979-03-08 23:46:01.120 ,1,1,0.,12.0,0.,12.0,0.,12.0,0.,12.0
1979-03-08 23:46:13.120 ,1,1,0.,12.0,0.,12.0,0.,12.0,0.,12.0
1979-03-08 23:21:13.110 ,0,1,0.,12.0,0.,12.0,0.,12.0,0.,12.0
1979-03-08 23:21:25.110 ,0,1,0.,12.0,0.,12.0,0.,12.0,0.,12.0
1979-03-08 23:21:46.110 ,1,1,,0,,0,,0,,0
1979-03-08 23:21:58.110 ,1,1,0.,12.0,0.,12.0,0.,12.0,0.,12.0
1979-03-08 23:22:01.110 ,2,1,0.,12.0,0.,12.0,0.,12.0,0.,12.0
1979-03-08 23:22:13.110 ,2,1,0.,12.0,0.,12.0,0.,12.0,0.,12.0
1979-03-08 23:22:25.110 ,3,1,0.,12.0,0.,12.0,0.,12.0,0.,12.0
1979-03-08 23:22:37.110 ,3,1,0.,12.0,0.,12.0,0.,12.0,0.,12.0
1979-03-08 23:22:49.110 ,4,1,0.,12.0,0.,12.0,0.,12.0,0.,12.0
1979-03-08 23:23:01.110 ,4,1,0.,12.0,0.,12.0,0.,12.0,0.,12.0
1979-03-08 23:23:13.110 ,5,1,0.,12.0,0.,12.0,0.,12.0,0.,12.0
1979-03-08 23:23:25.110 ,5,1,0.,12.0,0.,12.0,0.,12.0,0.,12.0
1979-03-08 23:23:37.110 ,6,1,0.,12.0,0.,12.0,0.,12.0,0.,12.0
1979-03-08 23:23:49.110 ,6,1,0.,12.0,0.,12.0,0.,12.0,0.,12.0
1979-03-08 23:24:01.110 ,6,0,0.,12.0,0.,12.0,0.,12.0,0.,12.0
1979-03-08 23:24:13.110 ,6,0,,0,,0,,0,,0
1979-03-08 23:24:25.110 ,7,1,0.,12.0,0.,12.0,0.,12.0,0.,12.0
1979-03-08 23:24:37.110 ,7,1,0.,12.0,0.,12.0,0.,12.0,0.,12.0
1979-03-08 23:24:49.110 ,6,1,0.,12.0,0.,12.0,0.,12.0,0.,12.0
1979-03-08 23:25:01.110 ,6,1,0.,12.0,0.,12.0,0.,12.0,0.,12.0
1979-03-08 23:25:13.110 ,5,1,0.,12.0,0.,12.0,0.,12.0,0.,12.0
1979-03-08 23:25:25.110 ,5,1,0.,12.0,0.,12.0,0.,12.0,0.,12.0
1979-03-08 23:25:37.110 ,4,1,0.,12.0,0.,12.0,0.,12.0,0.,12.0
1979-03-08 23:25:49.110 ,4,1,0.,12.0,0.,12.0,0.,12.0,0.,12.0
1979-03-08 23:26:01.110 ,3,1,0.,12.0,0.,12.0,0.,12.0,0.,12.0
1979-03-08 23:26:13.110 ,3,1,0.,12.0,0.,12.0,0.,12.0,0.,12.0
1979-03-08 23:26:25.110 ,2,1,0.,12.0,0.,12.0,0.,12.0,0.,12.0
1979-03-08 23:26:37.110 ,2,1,0.,12.0,0.,12.0,0.,12.0,0.,12.0
1979-03-08 23:26:49.110 ,1,1,0.,12.0,0.,12.0,0.,12.0,0.,12.0
1979-03-08 23:27:01.110 ,1,1,0.,12.0,0.,12.0,0.,12.0,0.,12.0
1979-03-08 23:27:13.110 ,0,1,0.,12.0,0.,12.0,0.,12.0,0.,12.0
1979-03-08 23:27:25.110 ,0,1,0.,12.0,0.,12.0,0.,12.0,0.,12.0
1979-03-08 23:27:37.110 ,0,1,0.,12.0,0.,12.0,0.,12.0,0.,12.0
1979-03-08 23:27:49.110 ,0,1,0.,12.0,0.,12.0,0.,12.0,0.,12.0